Home   Weather   Greensboro   Past weeks

Flag for USA Past Weather in Greensboro, North Carolina, USA — Yesterday and Last 2 Weeks

Now
84 °F

Thunderstorms. Broken clouds.


Feels Like: 87 °F
Forecast: 76 / 95 °F
Wind: 14 mph from West

Location: Piedmont Triad International Airport

Current Time: Jul 22, 2017 at 6:49:09 pm

Latest Report: Jul 22, 2017 at 5:54 pm


Visibility: 10 mi

Pressure: 29.85 "Hg

Humidity: 57%

Dew Point: 67 °F

Location of GreensboroLocation

Past Weather in Greensboro — Graph

°F

Greensboro Temperature Yesterday

Maximum temperature yesterday: 95 °F (at 2:54 pm)
Minimum temperature yesterday: 75 °F (at 4:54 am)
Average temperature yesterday: 84 °F

High & Low Weather Summary for the Past Weeks

 TemperatureHumidityPressure
High96 °F (Jul 22, 3:54 pm)100% (Jul 8, 5:54 am)30.16 "Hg (Jul 8, 5:54 am)
Low66 °F (Jul 9, 5:33 am)39% (Jul 19, 6:54 pm)29.85 "Hg (Jul 8, 4:54 am)
Average80 °F75%30.02 "Hg
* Reported Jul 7 5:54 pm — Jul 22 5:37 pm, Greensboro. Weather by CustomWeather, © 2017

Note: Actual official high and low records may vary slightly from our data, if they occured in-between our weather recording intervals... More about our weather records

Advertising

Greensboro Weather History for the Previous 24 Hours

Scroll right to see more
 ConditionsComfort  
Time TempWeatherWind HumidityBarometerVisibility
5:37 pm
Sat, Jul 22
91 °FThunderstorms. Broken clouds.21 mph54%29.89 "Hg10 mi
4:54 pm95 °FBroken clouds.14 mph47%29.85 "Hg10 mi
3:54 pm96 °FPartly sunny.14 mph44%29.87 "Hg10 mi
2:54 pm95 °FPartly sunny.15 mph49%29.89 "Hg10 mi
1:54 pm95 °FPartly sunny.14 mph49%29.91 "Hg10 mi
12:54 pm94 °FScattered clouds.10 mph49%29.93 "Hg10 mi
11:54 am92 °FScattered clouds.10 mph56%29.96 "Hg10 mi
10:54 am89 °FScattered clouds.8 mph63%29.96 "Hg10 mi
9:54 am85 °FScattered clouds.7 mph75%29.97 "Hg9 mi
8:54 am82 °FScattered clouds.7 mph82%29.97 "Hg9 mi
7:54 am78 °FPassing clouds.9 mph90%29.96 "Hg8 mi
6:54 am75 °FPassing clouds.5 mph96%29.93 "Hg7 mi
5:54 am75 °FPassing clouds.6 mph96%29.93 "Hg10 mi
4:54 am76 °FClear.5 mph94%29.91 "Hg10 mi
3:54 am76 °FPassing clouds.5 mph94%29.93 "Hg10 mi
2:54 am77 °FPassing clouds.6 mph90%29.94 "Hg10 mi
1:54 am78 °FPassing clouds.6 mph87%29.94 "Hg10 mi
12:54 am80 °FPassing clouds.8 mph81%29.96 "Hg10 mi
11:54 pm
Fri, Jul 21
80 °FMostly cloudy.7 mph79%29.96 "Hg10 mi
10:54 pm81 °FMostly cloudy.No wind79%29.97 "Hg10 mi
9:54 pm83 °FOvercast.No wind74%29.96 "Hg10 mi
8:54 pm84 °FOvercast.No wind70%29.95 "Hg10 mi
7:54 pm87 °FOvercast.3 mph63%29.94 "Hg10 mi
6:54 pm89 °FMore clouds than sun.6 mph55%29.93 "Hg10 mi
Weather by CustomWeather, © 2017

See weather overviewHow to use our weather pages